Hulett, WY

2:40 PM MST on December 16, 2017 (GMT -0700)
Hulett

Weather History for KW43 - August, 2014

Change the Weather History Date:

Wednesday, August 13, 2014

  Actual Average (KEFC) Record (KEFC)
Temperature  
Mean Temperature 74 °F -  
Max Temperature 87 °F 87 °F 102 °F (1970)
Min Temperature 62 °F 55 °F 41 °F (1966)
Cooling Degree Days 10    
Growing Degree Days 24 (Base 50)    
Moisture  
Dew Point 53 °F    
Average Humidity 44    
Maximum Humidity 72    
Minimum Humidity 27    
Precipitation  
Precipitation 0.00 in - - ()
Sea Level Pressure  
Sea Level Pressure 30.05 in    
Wind  
Wind Speed - (North)    
Max Wind Speed -    
Max Gust Speed -    
Visibility 10 miles    
Events      
Averages and records for this station are not official NWS values.
T = Trace of Precipitation, MM = Missing Value Source: NWS Daily Summary

Daily Weather History Graph

Daily Weather History Graph

Search for Another Location

Airport or City:

Trip Planner

Search our weather history database for the weather conditions in past years. The results will help you decide how hot, cold, wet, or windy it might be!

Date:

Astronomy

Aug. 13, 2014 Rise Set
Actual Time 5:58 AM MDT 8:06 PM MDT
Civil Twilight 5:26 AM MDT 8:38 PM MDT
Nautical Twilight 4:47 AM MDT 9:18 PM MDT
Astronomical Twilight 4:03 AM MDT 10:01 PM MDT
Moon 9:41 PM MDT (8/13) 9:40 AM MDT (8/13)
Length of Visible Light 15h 12m
Length of Day
14h 08m
Waning Gibbous, 87% of the Moon is Illuminated
Aug 13
Waning Gibbous
Aug 17
Last Quarter
Aug 25
New
Sep 2
First Quarter
Sep 8
Full

Hourly Weather History & Observations

Time (MDT) Temp. Heat Index Dew Point Humidity Pressure Visibility Wind Dir Wind Speed Gust Speed Precip Events Conditions
12:15 AM 69.8 °F - 51.8 °F 53% 30.08 in 10.0 mi North - - N/A   Clear
12:35 AM 69.8 °F - 51.8 °F 53% 30.08 in 10.0 mi North - - N/A   Clear
12:55 AM 69.8 °F - 51.8 °F 53% 30.08 in 10.0 mi North - - N/A   Clear
1:15 AM 69.8 °F - 51.8 °F 53% 30.08 in 10.0 mi North - - N/A   Clear
1:35 AM 66.2 °F - 51.8 °F 60% 30.08 in 10.0 mi North - - N/A   Clear
1:55 AM 68.0 °F - 51.8 °F 56% 30.08 in 10.0 mi North - - N/A   Clear
2:15 AM 69.8 °F - 51.8 °F 53% 30.08 in 10.0 mi North - - N/A   Clear
2:35 AM 69.8 °F - 51.8 °F 53% 30.08 in 10.0 mi North - - N/A   Clear
2:55 AM 71.6 °F - 51.8 °F 50% 30.07 in 10.0 mi North - - N/A   Clear
3:15 AM 71.6 °F - 51.8 °F 50% 30.07 in 10.0 mi North - - N/A   Scattered Clouds
3:35 AM 71.6 °F - 51.8 °F 50% 30.07 in 10.0 mi North - - N/A   Scattered Clouds
3:55 AM 69.8 °F - 53.6 °F 56% 30.06 in 10.0 mi North - - N/A   Scattered Clouds
4:15 AM 69.8 °F - 53.6 °F 56% 30.05 in 10.0 mi North - - N/A   Clear
4:35 AM 68.0 °F - 53.6 °F 60% 30.04 in 10.0 mi North - - N/A   Clear
5:15 AM 68.0 °F - 53.6 °F 60% 30.05 in 10.0 mi North - - N/A   Clear
5:35 AM 62.6 °F - 53.6 °F 72% 30.04 in 10.0 mi North - - N/A   Clear
5:55 AM 66.2 °F - 53.6 °F 64% 30.05 in 10.0 mi North - - N/A   Clear
6:55 AM 66.2 °F - 53.6 °F 64% 30.07 in 10.0 mi North - - N/A   Clear
7:15 AM 68.0 °F - 55.4 °F 64% 30.07 in 10.0 mi North - - N/A   Clear
7:55 AM 71.6 °F - 55.4 °F 57% 30.05 in 10.0 mi North - - N/A   Clear
8:35 AM 78.8 °F - 53.6 °F 42% 30.04 in 10.0 mi North - - N/A   Clear
8:55 AM 75.2 °F - 57.2 °F 53% 30.06 in 10.0 mi North - - N/A   Clear
9:15 AM 73.4 °F - 59.0 °F 61% 30.06 in 10.0 mi North - - N/A   Clear
9:35 AM 77.0 °F - 57.2 °F 50% 30.05 in 10.0 mi North - - N/A   Clear
9:55 AM 80.6 °F 80.5 °F 55.4 °F 42% 30.04 in 10.0 mi North - - N/A   Clear
10:15 AM 80.6 °F 81.1 °F 59.0 °F 48% 30.05 in 10.0 mi North - - N/A   Clear
10:35 AM 80.6 °F 80.8 °F 57.2 °F 45% 30.06 in 10.0 mi North - - N/A   Clear
10:55 AM 84.2 °F 83.0 °F 55.4 °F 37% 30.06 in 10.0 mi North - - N/A   Clear
11:15 AM 86.0 °F - 51.8 °F 31% 30.06 in 10.0 mi North - - N/A   Clear
11:35 AM 82.4 °F 81.4 °F 53.6 °F 37% 30.05 in 10.0 mi North - - N/A   Clear
11:55 AM 86.0 °F 84.2 °F 53.6 °F 33% 30.05 in 10.0 mi North - - N/A   Clear
12:15 PM 87.8 °F - 50.0 °F 27% 30.05 in 10.0 mi North - - N/A   Clear
12:35 PM 87.8 °F - 51.8 °F 29% 30.06 in 10.0 mi North - - N/A   Clear
12:55 PM 87.8 °F - 51.8 °F 29% 30.05 in 10.0 mi North - - N/A   Clear
1:15 PM 87.8 °F - 51.8 °F 29% 30.05 in 10.0 mi North - - N/A   Clear
1:35 PM 87.8 °F - 51.8 °F 29% 30.05 in 10.0 mi North - - N/A   Scattered Clouds
1:55 PM 86.0 °F - 51.8 °F 31% 30.05 in 10.0 mi North - - N/A   Clear
2:15 PM 86.0 °F - 51.8 °F 31% 30.04 in 10.0 mi North - - N/A   Clear
2:35 PM 86.0 °F 84.2 °F 53.6 °F 33% 30.04 in 10.0 mi North - - N/A   Clear
2:55 PM 86.0 °F - 51.8 °F 31% 30.04 in 10.0 mi North - - N/A   Scattered Clouds
3:15 PM 86.0 °F 84.2 °F 53.6 °F 33% 30.03 in 10.0 mi North - - N/A   Scattered Clouds
3:35 PM 87.8 °F 85.7 °F 53.6 °F 31% 30.02 in 10.0 mi North - - N/A   Scattered Clouds
4:15 PM 86.0 °F 84.2 °F 53.6 °F 33% 30.01 in 10.0 mi North - - N/A   Scattered Clouds
4:35 PM 87.8 °F 86.1 °F 55.4 °F 33% 30.01 in 10.0 mi North - - N/A   Scattered Clouds
4:55 PM 87.8 °F 86.1 °F 55.4 °F 33% 30.00 in 10.0 mi North - - N/A   Clear
5:15 PM 87.8 °F 86.1 °F 55.4 °F 33% 29.99 in 10.0 mi North - - N/A   Clear
5:35 PM 87.8 °F 86.1 °F 55.4 °F 33% 29.99 in 10.0 mi North - - N/A   Clear
10:15 PM 80.6 °F - 48.2 °F 32% 30.01 in 10.0 mi North - - N/A   Scattered Clouds
10:55 PM 78.8 °F - 48.2 °F 34% 30.02 in 10.0 mi North - - N/A   Mostly Cloudy
11:15 PM 78.8 °F - 48.2 °F 34% 30.02 in 10.0 mi North - - N/A   Scattered Clouds
11:35 PM 77.0 °F - 50.0 °F 39% 30.02 in 10.0 mi North - - N/A   Mostly Cloudy
11:55 PM 77.0 °F - 50.0 °F 39% 30.02 in 10.0 mi North - - N/A   Mostly Cloudy